Simultaneous Nadir Overpasses (SNOs) Predictions

Prediction of SNOs between AQUA and GOES-15 Satellite Orbit:

Table of predicted SNOs for the next 14.0 days since TLE Epoch: 6/24/2023
Index Date Time (AQUA) AQUA Lat,Lon GOES-15 Lat,Lon Distance(km) Time Diff (sec)
1 06/25/2023 12:51:05 -0.14,-165.28 -0.18,-165.23 7.14 80
2 06/27/2023 12:36:58 -1.03,-161.86 -0.17,-165.99 469.84 80
3 06/28/2023 00:57:53 0.03,-166.94 0.20,-166.19 85.08 80
4 06/30/2023 00:43:45 0.91,-163.51 0.19,-166.95 390.28 80
5 06/30/2023 13:04:31 0.07,-168.55 -0.23,-167.14 160.66 80
6 07/02/2023 12:50:22 -0.79,-165.12 -0.22,-167.88 313.46 80
7 07/03/2023 01:11:17 -0.19,-170.20 0.25,-168.07 242.23 80
8 07/05/2023 00:57:07 0.66,-166.76 0.24,-168.80 231.30 80
9 07/05/2023 13:17:51 0.36,-171.79 -0.27,-168.99 319.81 80
10 07/07/2023 13:03:41 -0.53,-168.36 -0.26,-169.71 153.67 80
11 07/08/2023 01:24:35 -0.48,-173.43 0.29,-169.90 402.22 80
